カタログに戻る

SHIYAN 32-02

運用中科学VLEO
NORAD 66378·PAYLOAD·🇨🇳 China

打ち上げ Nov 8, 2025 から Yellow Sea Launch Area

Loading…

次のパス (今後24時間)

TLE

最新Source: Space-Track

元期: Sep 14, 2026, 22:20 UTC

1 66378U 25255C   26257.93105032  .00015144  00000-0  36005-3 0  9996
2 66378  52.9926 308.4593 0016573 135.9307 224.3021 15.41756274 47802

AllMySatでSHIYAN 32-02をリアルタイム追跡

Download on the App Store